Find Starlink 30370

NORAD ID: 57751 Int'l Des: 2023-131 Owner: SPXS Country: US Constellation: starlink operational
LEOCIRCULAR

当前视图

正在加载3D地球...

About Starlink 30370

Starlink 30370 (NORAD 57751) is a starlink constellation satellite (v2 mini) launched Sep 1, 2023 by SPXS of US. It operates in LEO, CIRCULAR orbit with a mass of 730.00 kg.

关于 Starlink 30370

正在加载描述...

即将过境

Passes for default location (London). Set your location on the main map for personalized predictions.

高度历史

Loading altitude history...

两行轨道根数

1 57751U 23131V 26167.13442884 .00026234 00000-0 85212-3 0 9999
2 57751 43.0003 320.2062 0003993 299.4493 60.5962 15.31431720155169
Epoch: Jun 16, 2026 • Age: 9 hours

当前状态

高度 479.0 km
速度 7.63 km/s
星下点 -35.71°S, 177.75°E
发射日期 Sep 1, 2023
运行时间 2.7 years
类型 internet

技术详情

分类 Payload
质量 730.00 kg
干质量 700.00 kg
总质量 730.00 kg
长度 0.30 m
直径 4.10 m
跨度 29.00 m
形状 Box + pan
制造商 SPXS
平台类型 Starlink V2M
阶段状态 In Orbit
所有者/国家 SPXS/US

Most Searched